Location: Joplin, MO
(37.0842°N, 94.5133°W)
Time: 22:41:18
(UTC+02:00)

Courier 1B Rocket - Pass Details

Date: 01 April 2023
Orbit: 920 x 1202 km, 28.2° (Epoch: 05 June)

Event Time Altitude Azimuth Distance (km) Brightness Sun altitude
Rises 23:37:13 0° 213° (SSW) 4,084 9.0 35.0°
Reaches altitude 10° 23:41:02 10° 197° (SSW) 3,113 8.3 34.3°
Maximum altitude 23:46:08 19° 155° (SSE) 2,469 7.3 33.3°
Drops below altitude 10° 23:51:08 10° 114° (ESE) 3,038 7.3 32.4°
Sets 23:54:47 0° 97° (E) 3,954 7.7 31.7°
